Year,Month,Day,Hour,Minute,Value (Times are PST for temperature in C)
2019,05,08,00,00,14.60
2019,05,08,00,01,14.60
2019,05,08,00,02,14.60
2019,05,08,00,03,14.60
2019,05,08,00,04,14.50
2019,05,08,00,05,14.50
2019,05,08,00,06,14.50
2019,05,08,00,07,14.40
2019,05,08,00,08,14.40
2019,05,08,00,09,14.40
2019,05,08,00,10,14.40
2019,05,08,00,11,14.40
2019,05,08,00,12,14.40
2019,05,08,00,13,14.30
2019,05,08,00,14,14.30
2019,05,08,00,15,14.30
2019,05,08,00,16,14.30
2019,05,08,00,17,14.30
2019,05,08,00,18,14.30
2019,05,08,00,19,14.30
2019,05,08,00,20,14.30
2019,05,08,00,21,14.30
2019,05,08,00,22,14.30
2019,05,08,00,23,14.30
2019,05,08,00,24,14.30
2019,05,08,00,25,14.30
2019,05,08,00,26,14.30
2019,05,08,00,27,14.30
2019,05,08,00,28,14.30
2019,05,08,00,29,14.30
2019,05,08,00,30,14.30
2019,05,08,00,31,14.30
2019,05,08,00,32,14.20
2019,05,08,00,33,14.20
2019,05,08,00,34,14.20
2019,05,08,00,35,14.20
2019,05,08,00,36,14.20
2019,05,08,00,37,14.20
2019,05,08,00,38,14.20
2019,05,08,00,39,14.10
2019,05,08,00,40,14.10
2019,05,08,00,41,14.10
2019,05,08,00,42,14.10
2019,05,08,00,43,14.10
2019,05,08,00,44,14.10
2019,05,08,00,45,14.00
2019,05,08,00,46,14.00
2019,05,08,00,47,13.90
2019,05,08,00,48,13.90
2019,05,08,00,49,13.90
2019,05,08,00,50,13.90
2019,05,08,00,51,13.90
2019,05,08,00,52,13.80
2019,05,08,00,53,13.80
2019,05,08,00,54,13.80
2019,05,08,00,55,13.80
2019,05,08,00,56,13.70
2019,05,08,00,57,13.60
2019,05,08,00,58,13.60
2019,05,08,00,59,13.50
2019,05,08,01,00,13.40
2019,05,08,01,01,13.40
2019,05,08,01,02,13.40
2019,05,08,01,03,13.30
2019,05,08,01,04,13.30
2019,05,08,01,05,13.30
2019,05,08,01,06,13.20
2019,05,08,01,07,13.20
2019,05,08,01,08,13.20
2019,05,08,01,09,13.20
2019,05,08,01,10,13.20
2019,05,08,01,11,13.20
2019,05,08,01,12,13.10
2019,05,08,01,13,13.10
2019,05,08,01,14,13.10
2019,05,08,01,15,13.10
2019,05,08,01,16,13.10
2019,05,08,01,17,13.10
2019,05,08,01,18,13.10
2019,05,08,01,19,13.00
2019,05,08,01,20,12.90
2019,05,08,01,21,12.90
2019,05,08,01,22,12.90
2019,05,08,01,23,12.80
2019,05,08,01,24,12.80
2019,05,08,01,25,12.80
2019,05,08,01,26,12.70
2019,05,08,01,27,12.70
2019,05,08,01,28,12.60
2019,05,08,01,29,12.60
2019,05,08,01,30,12.50
2019,05,08,01,31,12.50
2019,05,08,01,32,12.50
2019,05,08,01,33,12.40
2019,05,08,01,34,12.40
2019,05,08,01,35,12.40
2019,05,08,01,36,12.40
2019,05,08,01,37,12.40
2019,05,08,01,38,12.40
2019,05,08,01,39,12.40
2019,05,08,01,40,12.40
2019,05,08,01,41,12.40
2019,05,08,01,42,12.40
2019,05,08,01,43,12.40
2019,05,08,01,44,12.40
2019,05,08,01,45,12.40
2019,05,08,01,46,12.40
2019,05,08,01,47,12.40
2019,05,08,01,48,12.40
2019,05,08,01,49,12.40
2019,05,08,01,50,12.50
2019,05,08,01,51,12.60
2019,05,08,01,52,12.60
2019,05,08,01,53,12.70
2019,05,08,01,54,12.70
2019,05,08,01,55,12.70
2019,05,08,01,56,12.80
2019,05,08,01,57,12.80
2019,05,08,01,58,12.90
2019,05,08,01,59,12.90
2019,05,08,02,00,12.90
2019,05,08,02,01,12.90
2019,05,08,02,02,13.00
2019,05,08,02,03,13.00
2019,05,08,02,04,13.00
2019,05,08,02,05,13.00
2019,05,08,02,06,13.00
2019,05,08,02,07,12.90
2019,05,08,02,08,12.90
2019,05,08,02,09,12.90
2019,05,08,02,10,12.90
2019,05,08,02,11,12.90
2019,05,08,02,12,12.90
2019,05,08,02,13,12.90
2019,05,08,02,14,12.90
2019,05,08,02,15,12.90
2019,05,08,02,16,12.90
2019,05,08,02,17,12.90
2019,05,08,02,18,12.80
2019,05,08,02,19,12.80
2019,05,08,02,20,12.80
2019,05,08,02,21,12.80
2019,05,08,02,22,12.80
2019,05,08,02,23,12.80
2019,05,08,02,24,12.80
2019,05,08,02,25,12.80
2019,05,08,02,26,12.80
2019,05,08,02,27,12.80
2019,05,08,02,28,12.80
2019,05,08,02,29,12.80
2019,05,08,02,30,12.70
2019,05,08,02,31,12.70
2019,05,08,02,32,12.70
2019,05,08,02,33,12.70
2019,05,08,02,34,12.60
2019,05,08,02,35,12.60
2019,05,08,02,36,12.50
2019,05,08,02,37,12.50
2019,05,08,02,38,12.40
2019,05,08,02,39,12.40
2019,05,08,02,40,12.30
2019,05,08,02,41,12.30
2019,05,08,02,42,12.20
2019,05,08,02,43,12.20
2019,05,08,02,44,12.20
2019,05,08,02,45,12.20
2019,05,08,02,46,12.10
2019,05,08,02,47,12.10
2019,05,08,02,48,12.10
2019,05,08,02,49,12.10
2019,05,08,02,50,12.20
2019,05,08,02,51,12.20
2019,05,08,02,52,12.20
2019,05,08,02,53,12.20
2019,05,08,02,54,12.20
2019,05,08,02,55,12.20
2019,05,08,02,56,12.20
2019,05,08,02,57,12.20
2019,05,08,02,58,12.20
2019,05,08,02,59,12.20
2019,05,08,03,00,12.20
2019,05,08,03,01,12.10
2019,05,08,03,02,12.10
2019,05,08,03,03,12.10
2019,05,08,03,04,12.10
2019,05,08,03,05,12.10
2019,05,08,03,06,12.10
2019,05,08,03,07,12.00
2019,05,08,03,08,12.00
2019,05,08,03,09,12.00
2019,05,08,03,10,11.90
2019,05,08,03,11,11.90
2019,05,08,03,12,11.90
2019,05,08,03,13,11.90
2019,05,08,03,14,11.90
2019,05,08,03,15,11.90
2019,05,08,03,16,11.90
2019,05,08,03,17,12.00
2019,05,08,03,18,12.00
2019,05,08,03,19,12.00
2019,05,08,03,20,12.00
2019,05,08,03,21,11.90
2019,05,08,03,22,11.90
2019,05,08,03,23,11.90
2019,05,08,03,24,11.90
2019,05,08,03,25,11.80
2019,05,08,03,26,11.80
2019,05,08,03,27,11.70
2019,05,08,03,28,11.60
2019,05,08,03,29,11.50
2019,05,08,03,30,11.40
2019,05,08,03,31,11.40
2019,05,08,03,32,11.30
2019,05,08,03,33,11.30
2019,05,08,03,34,11.20
2019,05,08,03,35,11.20
2019,05,08,03,36,11.10
2019,05,08,03,37,11.10
2019,05,08,03,38,11.10
2019,05,08,03,39,11.20
2019,05,08,03,40,11.30
2019,05,08,03,41,11.30
2019,05,08,03,42,11.40
2019,05,08,03,43,11.40
2019,05,08,03,44,11.50
2019,05,08,03,45,11.60
2019,05,08,03,46,11.60
2019,05,08,03,47,11.70
2019,05,08,03,48,11.70
2019,05,08,03,49,11.70
2019,05,08,03,50,11.70
2019,05,08,03,51,11.70
2019,05,08,03,52,11.70
2019,05,08,03,53,11.70
2019,05,08,03,54,11.70
2019,05,08,03,55,11.70
2019,05,08,03,56,11.70
2019,05,08,03,57,11.60
2019,05,08,03,58,11.60
2019,05,08,03,59,11.60
2019,05,08,04,00,11.50
2019,05,08,04,01,11.50
2019,05,08,04,02,11.40
2019,05,08,04,03,11.40
2019,05,08,04,04,11.40
2019,05,08,04,05,11.40
2019,05,08,04,06,11.40
2019,05,08,04,07,11.30
2019,05,08,04,08,11.30
2019,05,08,04,09,11.20
2019,05,08,04,10,11.10
2019,05,08,04,11,11.10
2019,05,08,04,12,11.10
2019,05,08,04,13,11.00
2019,05,08,04,14,10.90
2019,05,08,04,15,10.90
2019,05,08,04,16,10.80
2019,05,08,04,17,10.80
2019,05,08,04,18,10.80
2019,05,08,04,19,10.70
2019,05,08,04,20,10.70
2019,05,08,04,21,10.60
2019,05,08,04,22,10.60
2019,05,08,04,23,10.50
2019,05,08,04,24,10.50
2019,05,08,04,25,10.40
2019,05,08,04,26,10.40
2019,05,08,04,27,10.30
2019,05,08,04,28,10.30
2019,05,08,04,29,10.20
2019,05,08,04,30,10.20
2019,05,08,04,31,10.10
2019,05,08,04,32,10.10
2019,05,08,04,33,10.10
2019,05,08,04,34,10.10
2019,05,08,04,35,10.00
2019,05,08,04,36,10.00
2019,05,08,04,37,10.00
2019,05,08,04,38,9.90
2019,05,08,04,39,9.90
2019,05,08,04,40,9.90
2019,05,08,04,41,9.80
2019,05,08,04,42,9.80
2019,05,08,04,43,9.80
2019,05,08,04,44,9.80
2019,05,08,04,45,9.70
2019,05,08,04,46,9.70
2019,05,08,04,47,9.70
2019,05,08,04,48,9.70
2019,05,08,04,49,9.70
2019,05,08,04,50,9.80
2019,05,08,04,51,9.80
2019,05,08,04,52,9.80
2019,05,08,04,53,9.70
2019,05,08,04,54,9.70
2019,05,08,04,55,9.70
2019,05,08,04,56,9.70
2019,05,08,04,57,9.70
2019,05,08,04,58,9.70
2019,05,08,04,59,9.70
2019,05,08,05,00,9.70
2019,05,08,05,01,9.70
2019,05,08,05,02,9.70
2019,05,08,05,03,9.70
2019,05,08,05,04,9.80
2019,05,08,05,05,9.80
2019,05,08,05,06,9.80
2019,05,08,05,07,9.80
2019,05,08,05,08,9.80
2019,05,08,05,09,9.80
2019,05,08,05,10,9.80
2019,05,08,05,11,9.80
2019,05,08,05,12,9.80
2019,05,08,05,13,9.80
2019,05,08,05,14,9.70
2019,05,08,05,15,9.70
2019,05,08,05,16,9.60
2019,05,08,05,17,9.60
2019,05,08,05,18,9.60
2019,05,08,05,19,9.50
2019,05,08,05,20,9.40
2019,05,08,05,21,9.40
2019,05,08,05,22,9.40
2019,05,08,05,23,9.30
2019,05,08,05,24,9.30
2019,05,08,05,25,9.30
2019,05,08,05,26,9.30
2019,05,08,05,27,9.20
2019,05,08,05,28,9.20
2019,05,08,05,29,9.20
2019,05,08,05,30,9.20
2019,05,08,05,31,9.20
2019,05,08,05,32,9.10
2019,05,08,05,33,9.10
2019,05,08,05,34,9.10
2019,05,08,05,35,9.10
2019,05,08,05,36,9.00
2019,05,08,05,37,9.00
2019,05,08,05,38,9.00
2019,05,08,05,39,9.00
2019,05,08,05,40,9.00
2019,05,08,05,41,8.90
2019,05,08,05,42,8.90
2019,05,08,05,43,8.90
2019,05,08,05,44,8.90
2019,05,08,05,45,8.90
2019,05,08,05,46,8.90
2019,05,08,05,47,8.90
2019,05,08,05,48,8.80
2019,05,08,05,49,8.80
2019,05,08,05,50,8.80
2019,05,08,05,51,8.80
2019,05,08,05,52,8.80
2019,05,08,05,53,8.80
2019,05,08,05,54,8.80
2019,05,08,05,55,8.80
2019,05,08,05,56,8.80
2019,05,08,05,57,8.80
2019,05,08,05,58,8.80
2019,05,08,05,59,8.80
2019,05,08,06,00,8.80
2019,05,08,06,01,8.80
2019,05,08,06,02,8.80
2019,05,08,06,03,8.80
2019,05,08,06,04,8.80
2019,05,08,06,05,8.80
2019,05,08,06,06,8.80
2019,05,08,06,07,8.80
2019,05,08,06,08,8.80
2019,05,08,06,09,8.80
2019,05,08,06,10,8.80
2019,05,08,06,11,8.80
2019,05,08,06,12,8.80
2019,05,08,06,13,8.80
2019,05,08,06,14,8.80
2019,05,08,06,15,8.80
2019,05,08,06,16,8.90
2019,05,08,06,17,8.90
2019,05,08,06,18,8.90
2019,05,08,06,19,8.90
2019,05,08,06,20,8.90
2019,05,08,06,21,8.90
2019,05,08,06,22,8.90
2019,05,08,06,23,8.90
2019,05,08,06,24,9.00
2019,05,08,06,25,9.00
2019,05,08,06,26,9.00
2019,05,08,06,27,9.00
2019,05,08,06,28,8.90
2019,05,08,06,29,8.90
2019,05,08,06,30,8.90
2019,05,08,06,31,8.90
2019,05,08,06,32,8.90
2019,05,08,06,33,8.90
2019,05,08,06,34,8.90
2019,05,08,06,35,8.90
2019,05,08,06,36,8.90
2019,05,08,06,37,8.90
2019,05,08,06,38,8.90
2019,05,08,06,39,8.90
2019,05,08,06,40,9.00
2019,05,08,06,41,9.00
2019,05,08,06,42,9.00
2019,05,08,06,43,9.00
2019,05,08,06,44,9.00
2019,05,08,06,45,9.00
2019,05,08,06,46,9.00
2019,05,08,06,47,8.90
2019,05,08,06,48,8.90
2019,05,08,06,49,8.90
2019,05,08,06,50,8.90
2019,05,08,06,51,8.90
2019,05,08,06,52,8.90
2019,05,08,06,53,8.90
2019,05,08,06,54,8.90
2019,05,08,06,55,8.90
2019,05,08,06,56,8.90
2019,05,08,06,57,8.90
2019,05,08,06,58,8.90
2019,05,08,06,59,8.90
2019,05,08,07,00,8.90
2019,05,08,07,01,8.90
2019,05,08,07,02,8.90
2019,05,08,07,03,8.90
2019,05,08,07,04,8.90
2019,05,08,07,05,8.90
2019,05,08,07,06,8.90
2019,05,08,07,07,8.90
2019,05,08,07,08,8.90
2019,05,08,07,09,8.90
2019,05,08,07,10,8.90
2019,05,08,07,11,8.90
2019,05,08,07,12,8.90
2019,05,08,07,13,8.90
2019,05,08,07,14,8.90
2019,05,08,07,15,8.90
2019,05,08,07,16,8.90
2019,05,08,07,17,8.90
2019,05,08,07,18,9.00
2019,05,08,07,19,9.00
2019,05,08,07,20,9.10
2019,05,08,07,21,9.10
2019,05,08,07,22,9.10
2019,05,08,07,23,9.20
2019,05,08,07,24,9.20
2019,05,08,07,25,9.20
2019,05,08,07,26,9.20
2019,05,08,07,27,9.30
2019,05,08,07,28,9.30
2019,05,08,07,29,9.30
2019,05,08,07,30,9.40
2019,05,08,07,31,9.40
2019,05,08,07,32,9.50
2019,05,08,07,33,9.60
2019,05,08,07,34,9.60
2019,05,08,07,35,9.70
2019,05,08,07,36,9.80
2019,05,08,07,37,9.90
2019,05,08,07,38,10.00
2019,05,08,07,39,10.10
2019,05,08,07,40,10.10
2019,05,08,07,41,10.20
2019,05,08,07,42,10.20
2019,05,08,07,43,10.30
2019,05,08,07,44,10.30
2019,05,08,07,45,10.40
2019,05,08,07,46,10.40
2019,05,08,07,47,10.50
2019,05,08,07,48,10.60
2019,05,08,07,49,10.70
2019,05,08,07,50,10.80
2019,05,08,07,51,10.80
2019,05,08,07,52,10.90
2019,05,08,07,53,11.00
2019,05,08,07,54,11.00
2019,05,08,07,55,11.00
2019,05,08,07,56,11.10
2019,05,08,07,57,11.10
2019,05,08,07,58,11.20
2019,05,08,07,59,11.20
2019,05,08,08,00,11.30
2019,05,08,08,01,11.30
2019,05,08,08,02,11.40
2019,05,08,08,03,11.50
2019,05,08,08,04,11.60
2019,05,08,08,05,11.60
2019,05,08,08,06,11.60
2019,05,08,08,07,11.70
2019,05,08,08,08,11.70
2019,05,08,08,09,11.60
2019,05,08,08,10,11.70
2019,05,08,08,11,11.70
2019,05,08,08,12,11.70
2019,05,08,08,13,11.60
2019,05,08,08,14,11.60
2019,05,08,08,15,11.60
2019,05,08,08,16,11.60
2019,05,08,08,17,11.50
2019,05,08,08,18,11.60
2019,05,08,08,19,11.60
2019,05,08,08,20,11.70
2019,05,08,08,21,11.70
2019,05,08,08,22,11.80
2019,05,08,08,23,11.90
2019,05,08,08,24,12.00
2019,05,08,08,25,12.00
2019,05,08,08,26,12.10
2019,05,08,08,27,12.10
2019,05,08,08,28,12.20
2019,05,08,08,29,12.20
2019,05,08,08,30,12.20
2019,05,08,08,31,12.20
2019,05,08,08,32,12.30
2019,05,08,08,33,12.30
2019,05,08,08,34,12.30
2019,05,08,08,35,12.30
2019,05,08,08,36,12.30
2019,05,08,08,37,12.40
2019,05,08,08,38,12.40
2019,05,08,08,39,12.50
2019,05,08,08,40,12.60
2019,05,08,08,41,12.60
2019,05,08,08,42,12.70
2019,05,08,08,43,12.80
2019,05,08,08,44,12.90
2019,05,08,08,45,12.90
2019,05,08,08,46,13.00
2019,05,08,08,47,13.00
2019,05,08,08,48,13.10
2019,05,08,08,49,13.20
2019,05,08,08,50,13.20
2019,05,08,08,51,13.30
2019,05,08,08,52,13.30
2019,05,08,08,53,13.40
2019,05,08,08,54,13.50
2019,05,08,08,55,13.50
2019,05,08,08,56,13.60
2019,05,08,08,57,13.70
2019,05,08,08,58,13.70
2019,05,08,08,59,13.80
2019,05,08,09,00,13.80
2019,05,08,09,01,13.80
2019,05,08,09,02,13.90
2019,05,08,09,03,13.90
2019,05,08,09,04,13.90
2019,05,08,09,05,14.00
2019,05,08,09,06,14.00
2019,05,08,09,07,14.10
2019,05,08,09,08,14.20
2019,05,08,09,09,14.20
2019,05,08,09,10,14.30
2019,05,08,09,11,14.30
2019,05,08,09,12,14.30
2019,05,08,09,13,14.30
2019,05,08,09,14,14.40
2019,05,08,09,15,14.50
2019,05,08,09,16,14.50
2019,05,08,09,17,14.60
2019,05,08,09,18,14.60
2019,05,08,09,19,14.70
2019,05,08,09,20,14.70
2019,05,08,09,21,14.70
2019,05,08,09,22,14.80
2019,05,08,09,23,14.80
2019,05,08,09,24,14.80
2019,05,08,09,25,14.90
2019,05,08,09,26,14.90
2019,05,08,09,27,14.90
2019,05,08,09,28,14.90
2019,05,08,09,29,14.90
2019,05,08,09,30,14.90
2019,05,08,09,31,14.90
2019,05,08,09,32,14.90
2019,05,08,09,33,14.90
2019,05,08,09,34,14.90
2019,05,08,09,35,14.90
2019,05,08,09,36,14.90
2019,05,08,09,37,14.90
2019,05,08,09,38,14.90
2019,05,08,09,39,15.00
2019,05,08,09,40,15.00
2019,05,08,09,41,15.10
2019,05,08,09,42,15.20
2019,05,08,09,43,15.20
2019,05,08,09,44,15.30
2019,05,08,09,45,15.30
2019,05,08,09,46,15.40
2019,05,08,09,47,15.40
2019,05,08,09,48,15.40
2019,05,08,09,49,15.40
2019,05,08,09,50,15.50
2019,05,08,09,51,15.50
2019,05,08,09,52,15.50
2019,05,08,09,53,15.60
2019,05,08,09,54,15.70
2019,05,08,09,55,15.80
2019,05,08,09,56,15.80
2019,05,08,09,57,15.80
2019,05,08,09,58,15.90
2019,05,08,09,59,15.90
2019,05,08,10,00,15.90
2019,05,08,10,01,15.90
2019,05,08,10,02,16.00
2019,05,08,10,03,16.00
2019,05,08,10,04,16.10
2019,05,08,10,05,16.20
2019,05,08,10,06,16.20
2019,05,08,10,07,16.30
2019,05,08,10,08,16.30
2019,05,08,10,09,16.40
2019,05,08,10,10,16.40
2019,05,08,10,11,16.40
2019,05,08,10,12,16.40
2019,05,08,10,13,16.40
2019,05,08,10,14,16.50
2019,05,08,10,15,16.50
2019,05,08,10,16,16.60
2019,05,08,10,17,16.60
2019,05,08,10,18,16.70
2019,05,08,10,19,16.70
2019,05,08,10,20,16.70
2019,05,08,10,21,16.70
2019,05,08,10,22,16.80
2019,05,08,10,23,16.80
2019,05,08,10,24,16.90
2019,05,08,10,25,17.00
2019,05,08,10,26,17.10
2019,05,08,10,27,17.20
2019,05,08,10,28,17.20
2019,05,08,10,29,17.20
2019,05,08,10,30,17.20
2019,05,08,10,31,17.20
2019,05,08,10,32,17.20
2019,05,08,10,33,17.30
2019,05,08,10,34,17.30
2019,05,08,10,35,17.40
2019,05,08,10,36,17.40
2019,05,08,10,37,17.60
2019,05,08,10,38,17.70
2019,05,08,10,39,17.70
2019,05,08,10,40,17.80
2019,05,08,10,41,17.80
2019,05,08,10,42,17.80
2019,05,08,10,43,17.80
2019,05,08,10,44,17.90
2019,05,08,10,45,17.90
2019,05,08,10,46,17.90
2019,05,08,10,47,17.90
2019,05,08,10,48,17.80
2019,05,08,10,49,17.80
2019,05,08,10,50,17.90
2019,05,08,10,51,17.90
2019,05,08,10,52,17.90
2019,05,08,10,53,17.90
2019,05,08,10,54,17.90
2019,05,08,10,55,17.90
2019,05,08,10,56,17.90
2019,05,08,10,57,17.90
2019,05,08,10,58,18.00
2019,05,08,10,59,18.00
2019,05,08,11,00,18.10
2019,05,08,11,01,18.10
2019,05,08,11,02,18.10
2019,05,08,11,03,18.20
2019,05,08,11,04,18.20
2019,05,08,11,05,18.30
2019,05,08,11,06,18.30
2019,05,08,11,07,18.40
2019,05,08,11,08,18.40
2019,05,08,11,09,18.40
2019,05,08,11,10,18.40
2019,05,08,11,11,18.50
2019,05,08,11,12,18.60
2019,05,08,11,13,18.70
2019,05,08,11,14,18.80
2019,05,08,11,15,18.90
2019,05,08,11,16,18.90
2019,05,08,11,17,18.90
2019,05,08,11,18,18.80
2019,05,08,11,19,18.80
2019,05,08,11,20,18.90
2019,05,08,11,21,18.90
2019,05,08,11,22,18.90
2019,05,08,11,23,18.90
2019,05,08,11,24,18.90
2019,05,08,11,25,19.00
2019,05,08,11,26,19.00
2019,05,08,11,27,19.00
2019,05,08,11,28,19.10
2019,05,08,11,29,19.10
2019,05,08,11,30,19.20
2019,05,08,11,31,19.30
2019,05,08,11,32,19.40
2019,05,08,11,33,19.50
2019,05,08,11,34,19.60
2019,05,08,11,35,19.70
2019,05,08,11,36,19.80
2019,05,08,11,37,19.90
2019,05,08,11,38,19.90
2019,05,08,11,39,19.80
2019,05,08,11,40,19.80
2019,05,08,11,41,19.80
2019,05,08,11,42,19.80
2019,05,08,11,43,19.80
2019,05,08,11,44,19.80
2019,05,08,11,45,19.90
2019,05,08,11,46,20.00
2019,05,08,11,47,20.00
2019,05,08,11,48,20.10
2019,05,08,11,49,20.20
2019,05,08,11,50,20.30
2019,05,08,11,51,20.40
2019,05,08,11,52,20.40
2019,05,08,11,53,20.40
2019,05,08,11,54,20.40
2019,05,08,11,55,20.40
2019,05,08,11,56,20.40
2019,05,08,11,57,20.40
2019,05,08,11,58,20.40
2019,05,08,11,59,20.50
2019,05,08,12,00,20.60
2019,05,08,12,01,20.60
2019,05,08,12,02,20.70
2019,05,08,12,03,20.70
2019,05,08,12,04,20.80
2019,05,08,12,05,20.90
2019,05,08,12,06,20.90
2019,05,08,12,07,21.00
2019,05,08,12,08,21.10
2019,05,08,12,09,21.10
2019,05,08,12,10,21.00
2019,05,08,12,11,21.00
2019,05,08,12,12,21.00
2019,05,08,12,13,21.10
2019,05,08,12,14,21.10
2019,05,08,12,15,21.20
2019,05,08,12,16,21.20
2019,05,08,12,17,21.30
2019,05,08,12,18,21.30
2019,05,08,12,19,21.40
2019,05,08,12,20,21.60
2019,05,08,12,21,21.70
2019,05,08,12,22,21.70
2019,05,08,12,23,21.80
2019,05,08,12,24,21.70
2019,05,08,12,25,21.70
2019,05,08,12,26,21.70
2019,05,08,12,27,21.60
2019,05,08,12,28,21.60
2019,05,08,12,29,21.60
2019,05,08,12,30,21.70
2019,05,08,12,31,21.80
2019,05,08,12,32,21.80
2019,05,08,12,33,21.80
2019,05,08,12,34,21.80
2019,05,08,12,35,21.80
2019,05,08,12,36,21.90
2019,05,08,12,37,21.90
2019,05,08,12,38,22.00
2019,05,08,12,39,22.10
2019,05,08,12,40,22.20
2019,05,08,12,41,22.20
2019,05,08,12,42,22.30
2019,05,08,12,43,22.30
2019,05,08,12,44,22.40
2019,05,08,12,45,22.40
2019,05,08,12,46,22.40
2019,05,08,12,47,22.50
2019,05,08,12,48,22.50
2019,05,08,12,49,22.60
2019,05,08,12,50,22.50
2019,05,08,12,51,22.50
2019,05,08,12,52,22.40
2019,05,08,12,53,22.40
2019,05,08,12,54,22.50
2019,05,08,12,55,22.50
2019,05,08,12,56,22.60
2019,05,08,12,57,22.60
2019,05,08,12,58,22.70
2019,05,08,12,59,22.80
2019,05,08,13,00,22.80
2019,05,08,13,01,22.80
2019,05,08,13,02,22.80
2019,05,08,13,03,22.80
2019,05,08,13,04,22.90
2019,05,08,13,05,22.90
2019,05,08,13,06,22.90
2019,05,08,13,07,23.00
2019,05,08,13,08,23.00
2019,05,08,13,09,23.00
2019,05,08,13,10,23.10
2019,05,08,13,11,23.20
2019,05,08,13,12,23.40
2019,05,08,13,13,23.60
2019,05,08,13,14,23.70
2019,05,08,13,15,23.70
2019,05,08,13,16,23.80
2019,05,08,13,17,23.90
2019,05,08,13,18,24.00
2019,05,08,13,19,24.10
2019,05,08,13,20,24.10
2019,05,08,13,21,24.20
2019,05,08,13,22,24.10
2019,05,08,13,23,24.10
2019,05,08,13,24,24.10
2019,05,08,13,25,24.10
2019,05,08,13,26,24.10
2019,05,08,13,27,24.10
2019,05,08,13,28,24.10
2019,05,08,13,29,24.10
2019,05,08,13,30,24.10
2019,05,08,13,31,24.10
2019,05,08,13,32,24.10
2019,05,08,13,33,24.10
2019,05,08,13,34,24.20
2019,05,08,13,35,24.30
2019,05,08,13,36,24.40
2019,05,08,13,37,24.50
2019,05,08,13,38,24.50
2019,05,08,13,39,24.60
2019,05,08,13,40,24.50
2019,05,08,13,41,24.40
2019,05,08,13,42,24.30
2019,05,08,13,43,24.40
2019,05,08,13,44,24.40
2019,05,08,13,45,24.50
2019,05,08,13,46,24.60
2019,05,08,13,47,24.60
2019,05,08,13,48,24.60
2019,05,08,13,49,24.60
2019,05,08,13,50,24.70
2019,05,08,13,51,24.80
2019,05,08,13,52,24.80
2019,05,08,13,53,24.90
2019,05,08,13,54,24.90
2019,05,08,13,55,24.90
2019,05,08,13,56,24.90
2019,05,08,13,57,25.00
2019,05,08,13,58,25.00
2019,05,08,13,59,24.90
2019,05,08,14,00,24.80
2019,05,08,14,01,24.80
2019,05,08,14,02,24.70
2019,05,08,14,03,24.70
2019,05,08,14,04,24.70
2019,05,08,14,05,24.90
2019,05,08,14,06,25.00
2019,05,08,14,07,25.10
2019,05,08,14,08,25.10
2019,05,08,14,09,25.10
2019,05,08,14,10,25.10
2019,05,08,14,11,25.10
2019,05,08,14,12,25.20
2019,05,08,14,13,25.30
2019,05,08,14,14,25.40
2019,05,08,14,15,25.50
2019,05,08,14,16,25.60
2019,05,08,14,17,25.70
2019,05,08,14,18,25.70
2019,05,08,14,19,25.70
2019,05,08,14,20,25.70
2019,05,08,14,21,25.70
2019,05,08,14,22,25.70
2019,05,08,14,23,25.70
2019,05,08,14,24,25.60
2019,05,08,14,25,25.50
2019,05,08,14,26,25.40
2019,05,08,14,27,25.40
2019,05,08,14,28,25.40
2019,05,08,14,29,25.40
2019,05,08,14,30,25.50
2019,05,08,14,31,25.50
2019,05,08,14,32,25.50
2019,05,08,14,33,25.50
2019,05,08,14,34,25.50
2019,05,08,14,35,25.50
2019,05,08,14,36,25.40
2019,05,08,14,37,25.50
2019,05,08,14,38,25.60
2019,05,08,14,39,25.60
2019,05,08,14,40,25.70
2019,05,08,14,41,25.70
2019,05,08,14,42,25.70
2019,05,08,14,43,25.70
2019,05,08,14,44,25.70
2019,05,08,14,45,25.60
2019,05,08,14,46,25.60
2019,05,08,14,47,25.60
2019,05,08,14,48,25.50
2019,05,08,14,49,25.50
2019,05,08,14,50,25.50
2019,05,08,14,51,25.60
2019,05,08,14,52,25.70
2019,05,08,14,53,25.70
2019,05,08,14,54,25.80
2019,05,08,14,55,25.80
2019,05,08,14,56,25.80
2019,05,08,14,57,25.80
2019,05,08,14,58,25.80
2019,05,08,14,59,25.80
2019,05,08,15,00,25.70
2019,05,08,15,01,25.80
2019,05,08,15,02,25.80
2019,05,08,15,03,25.80
2019,05,08,15,04,25.80
2019,05,08,15,05,25.80
2019,05,08,15,06,25.90
2019,05,08,15,07,25.90
2019,05,08,15,08,25.90
2019,05,08,15,09,26.00
2019,05,08,15,10,26.10
2019,05,08,15,11,26.20
2019,05,08,15,12,26.20
2019,05,08,15,13,26.20
2019,05,08,15,14,26.20
2019,05,08,15,15,26.20
2019,05,08,15,16,26.30
2019,05,08,15,17,26.30
2019,05,08,15,18,26.40
2019,05,08,15,19,26.40
2019,05,08,15,20,26.40
2019,05,08,15,21,26.40
2019,05,08,15,22,26.30
2019,05,08,15,23,26.30
2019,05,08,15,24,26.20
2019,05,08,15,25,26.20
2019,05,08,15,26,26.10
2019,05,08,15,27,26.10
2019,05,08,15,28,26.10
2019,05,08,15,29,26.10
2019,05,08,15,30,26.20
2019,05,08,15,31,26.20
2019,05,08,15,32,26.20
2019,05,08,15,33,26.30
2019,05,08,15,34,26.30
2019,05,08,15,35,26.40
2019,05,08,15,36,26.50
2019,05,08,15,37,26.50
2019,05,08,15,38,26.60
2019,05,08,15,39,26.60
2019,05,08,15,40,26.60
2019,05,08,15,41,26.60
2019,05,08,15,42,26.60
2019,05,08,15,43,26.70
2019,05,08,15,44,26.70
2019,05,08,15,45,26.70
2019,05,08,15,46,26.70
2019,05,08,15,47,26.70
2019,05,08,15,48,26.70
2019,05,08,15,49,26.70
2019,05,08,15,50,26.70
2019,05,08,15,51,26.70
2019,05,08,15,52,26.70
2019,05,08,15,53,26.70
2019,05,08,15,54,26.80
2019,05,08,15,55,26.90
2019,05,08,15,56,26.90
2019,05,08,15,57,26.90
2019,05,08,15,58,26.90
2019,05,08,15,59,26.80
2019,05,08,16,00,26.80
2019,05,08,16,01,26.80
2019,05,08,16,02,26.80
2019,05,08,16,03,26.70
2019,05,08,16,04,26.70
2019,05,08,16,05,26.60
2019,05,08,16,06,26.60
2019,05,08,16,07,26.60
2019,05,08,16,08,26.60
2019,05,08,16,09,26.70
2019,05,08,16,10,26.80
2019,05,08,16,11,26.90
2019,05,08,16,12,26.90
2019,05,08,16,13,26.90
2019,05,08,16,14,27.00
2019,05,08,16,15,26.90
2019,05,08,16,16,26.90
2019,05,08,16,17,26.80
2019,05,08,16,18,26.80
2019,05,08,16,19,26.80
2019,05,08,16,20,26.80
2019,05,08,16,21,26.80
2019,05,08,16,22,26.90
2019,05,08,16,23,26.90
2019,05,08,16,24,27.00
2019,05,08,16,25,27.00
2019,05,08,16,26,27.00
2019,05,08,16,27,27.00
2019,05,08,16,28,27.00
2019,05,08,16,29,27.10
2019,05,08,16,30,27.10
2019,05,08,16,31,27.10
2019,05,08,16,32,27.10
2019,05,08,16,33,27.10
2019,05,08,16,34,27.10
2019,05,08,16,35,27.20
2019,05,08,16,36,27.30
2019,05,08,16,37,27.30
2019,05,08,16,38,27.40
2019,05,08,16,39,27.40
2019,05,08,16,40,27.40
2019,05,08,16,41,27.40
2019,05,08,16,42,27.30
2019,05,08,16,43,27.30
2019,05,08,16,44,27.20
2019,05,08,16,45,27.20
2019,05,08,16,46,27.20
2019,05,08,16,47,27.20
2019,05,08,16,48,27.10
2019,05,08,16,49,27.10
2019,05,08,16,50,27.10
2019,05,08,16,51,27.10
2019,05,08,16,52,27.10
2019,05,08,16,53,27.10
2019,05,08,16,54,27.10
2019,05,08,16,55,27.10
2019,05,08,16,56,27.10
2019,05,08,16,57,27.10
2019,05,08,16,58,27.00
2019,05,08,16,59,27.10
2019,05,08,17,00,27.10
2019,05,08,17,01,27.10
2019,05,08,17,02,27.10
2019,05,08,17,03,27.10
2019,05,08,17,04,27.10
2019,05,08,17,05,27.10
2019,05,08,17,06,27.10
2019,05,08,17,07,27.20
2019,05,08,17,08,27.20
2019,05,08,17,09,27.10
2019,05,08,17,10,27.10
2019,05,08,17,11,27.00
2019,05,08,17,12,27.00
2019,05,08,17,13,27.00
2019,05,08,17,14,27.10
2019,05,08,17,15,27.10
2019,05,08,17,16,27.10
2019,05,08,17,17,27.10
2019,05,08,17,18,27.10
2019,05,08,17,19,27.20
2019,05,08,17,20,27.10
2019,05,08,17,21,27.10
2019,05,08,17,22,27.10
2019,05,08,17,23,27.10
2019,05,08,17,24,27.10
2019,05,08,17,25,27.00
2019,05,08,17,26,27.00
2019,05,08,17,27,27.10